Weather in Krasnyy Profintern

Russia / Yaroslavl Oblast     57°44′50″N   40°26′17″E
temp.,
°C
wind,
m/s
gust,
m/s
humid.,
%
clouds,
%
prec.,
mm/h
press.,
hPa
HPBL,
m
8 may, sat
sat800:00+6s3474100 0.0 101368
03:00+5s3107590 0.0 1013171
06:00+6sse41173100 0.0 1013270
09:00+11sse61261100 0.0 1012782
12:00+14sse61157100 0.1 10112067
15:00+12se71364100 0.6 10091596
18:00+9sse71583100 1.9 10071311
21:00+9se61489100 6.4 1004929
9 may, sun
sun900:00+9se71493100 4.0 1001961
03:00+10sse61295100 4.4 1001659
06:00+10s61191100 0.3 1001747
09:00+8wsw4694100 0.6 1003566
12:00+4wnw61195100 0.1 1008675
15:00+5nw41093100 1.1 1012933
18:00+8nnw61371100 0.2 10151345
21:00+4nw35825 0.2 101883
10 may, mon
mon1000:00+3wnw36875 0.0 102196
03:00+2nw310890 0.0 1024188
06:00+4nw26830 0.0 1026163
09:00+9wnw23550 0.0 1028607
12:00+12wnw334476 0.0 10291362
15:00+14wsw23435 0.0 10291702
18:00+13ssw235588 0.0 1029188
21:00+8s336867 0.0 103034
11 may, tue
tue1100:00+9ssw236378 0.0 103142
03:00+6ssw22715 0.0 103223
06:00+8s24745 0.0 1032117
09:00+13s345728 0.0 1033515
12:00+16s335172 0.0 10321030
15:00+17se225098 0.0 10311062
18:00+17ese236499 0.0 1030176
21:00+12se22755 0.0 103115
12 may, wed
wed1200:00+9se22785 0.0 103114
03:00+8se22795 0.0 103126
06:00+9e24794 0.0 1031125
09:00+15ese46600 0.0 1030513
12:00+18ese45491 0.0 1029914
15:00+20se45455 0.0 10281113
18:00+19ese35618 0.0 1027269
21:00+13ese357717 0.0 102762